Defuniak Springs, Defuniak Sp, FL

12:36 PM CDT on July 27, 2017 (GMT -0500)
Defuniak Springs, Defuniak Sp

Weather History for K54J - January, 2014

Change the Weather History Date:

Saturday, January 4, 2014

  Actual Average (KCEW) Record (KCEW)
Temperature  
Mean Temperature 40 °F -  
Max Temperature 50 °F 60 °F 77 °F (1997)
Min Temperature 29 °F 38 °F 17 °F (2002)
Degree Days  
Heating Degree Days 26    
Moisture  
Dew Point 30 °F    
Average Humidity 71    
Maximum Humidity 88    
Minimum Humidity 57    
Precipitation  
Precipitation 0.11 in - - ()
Sea Level Pressure  
Sea Level Pressure 30.24 in    
Wind  
Wind Speed 8 mph (ENE)    
Max Wind Speed 12 mph    
Max Gust Speed -    
Visibility 10 miles    
Events      
Averages and records for this station are not official NWS values.
T = Trace of Precipitation, MM = Missing Value Source: NWS Daily Summary

Daily Weather History Graph

Daily Weather History Graph

Search for Another Location

Airport or City:

Trip Planner

Search our weather history database for the weather conditions in past years. The results will help you decide how hot, cold, wet, or windy it might be!

Date:

Astronomy

Jan. 04, 2014 Rise Set
Actual Time 6:42 AM CST 4:56 PM CST
Civil Twilight 6:16 AM CST 5:23 PM CST
Nautical Twilight 5:46 AM CST 5:52 PM CST
Astronomical Twilight 5:17 AM CST 6:22 PM CST
Moon 9:04 AM CST (1/4) 8:57 PM CST (1/4)
Length of Visible Light 11h 06m
Length of Day
10h 13m
Waxing Crescent, 15% of the Moon is Illuminated
Jan 4
Waxing Crescent
Jan 7
First Quarter
Jan 15
Full
Jan 23
Last Quarter
Jan 30
New

Hourly Weather History & Observations

Time (CST) Temp. Windchill Dew Point Humidity Pressure Visibility Wind Dir Wind Speed Gust Speed Precip Events Conditions
12:15 AM 29.1 °F 22.1 °F 22.1 °F 75% 30.32 in 10.0 mi ENE 6.9 mph - N/A   Clear
12:35 AM 29.1 °F 21.3 °F 22.5 °F 76% 30.31 in 10.0 mi ENE 8.1 mph - N/A   Clear
12:55 AM 29.7 °F 22.0 °F 22.5 °F 75% 30.31 in 10.0 mi ENE 8.1 mph - N/A   Clear
1:15 AM 30.0 °F 22.4 °F 22.1 °F 72% 30.30 in 10.0 mi ENE 8.1 mph - N/A   Clear
1:35 AM 29.7 °F 22.8 °F 22.1 °F 73% 30.31 in 10.0 mi ENE 6.9 mph - N/A   Clear
1:55 AM 29.3 °F 22.3 °F 22.1 °F 75% 30.31 in 10.0 mi ENE 6.9 mph - N/A   Clear
2:15 AM 29.1 °F 22.1 °F 22.6 °F 77% 30.30 in 10.0 mi ENE 6.9 mph - N/A   Clear
2:35 AM 30.0 °F 23.2 °F 23.4 °F 76% 30.30 in 10.0 mi ENE 6.9 mph - N/A   Clear
2:55 AM 30.0 °F 22.4 °F 23.2 °F 76% 30.30 in 10.0 mi ENE 8.1 mph - N/A   Clear
3:15 AM 29.7 °F 22.0 °F 22.8 °F 76% 30.30 in 10.0 mi ENE 8.1 mph - N/A   Clear
3:35 AM 29.3 °F 20.8 °F 22.8 °F 77% 30.30 in 10.0 mi ENE 9.2 mph - N/A   Clear
3:55 AM 29.3 °F 21.5 °F 23.0 °F 77% 30.29 in 10.0 mi ENE 8.1 mph - N/A   Clear
4:15 AM 29.1 °F 20.6 °F 23.0 °F 78% 30.29 in 10.0 mi ENE 9.2 mph - N/A   Clear
4:35 AM 29.3 °F 21.5 °F 22.6 °F 76% 30.30 in 10.0 mi East 8.1 mph - N/A   Scattered Clouds
4:55 AM 29.7 °F 21.3 °F 22.6 °F 75% 30.30 in 10.0 mi ENE 9.2 mph - N/A   Mostly Cloudy
5:15 AM 30.0 °F 21.7 °F 22.1 °F 72% 30.31 in 10.0 mi East 9.2 mph - N/A   Overcast
5:35 AM 30.4 °F 22.2 °F 21.9 °F 71% 30.30 in 10.0 mi East 9.2 mph - N/A   Overcast
5:55 AM 30.7 °F 21.4 °F 21.4 °F 68% 30.30 in 10.0 mi ENE 11.5 mph - N/A   Overcast
6:15 AM 30.6 °F 21.8 °F 21.7 °F 70% 30.30 in 10.0 mi ENE 10.4 mph - N/A   Overcast
6:35 AM 30.2 °F 20.8 °F 21.7 °F 71% 30.30 in 10.0 mi ENE 11.5 mph - N/A   Overcast
6:55 AM 30.2 °F 21.3 °F 21.2 °F 69% 30.30 in 10.0 mi ENE 10.4 mph - N/A   Mostly Cloudy
7:15 AM 31.1 °F 23.1 °F 21.2 °F 67% 30.31 in 10.0 mi ENE 9.2 mph - N/A   Scattered Clouds
7:35 AM 32.0 °F 23.0 °F 21.7 °F 66% 30.32 in 10.0 mi ENE 11.5 mph - N/A   Mostly Cloudy
7:55 AM 33.4 °F 26.6 °F 21.9 °F 63% 30.34 in 10.0 mi ENE 8.1 mph - N/A   Mostly Cloudy
8:15 AM 35.4 °F 28.4 °F 21.9 °F 58% 30.34 in 10.0 mi ENE 9.2 mph - N/A   Mostly Cloudy
8:35 AM 37.2 °F 29.6 °F 23.2 °F 57% 30.34 in 10.0 mi ENE 11.5 mph - N/A   Overcast
8:55 AM 36.7 °F 29.4 °F 24.4 °F 61% 30.33 in 10.0 mi ENE 10.4 mph - 0.01 in   Scattered Clouds
9:15 AM 37.2 °F 30.6 °F 25.9 °F 64% 30.33 in 10.0 mi ENE 9.2 mph - 0.01 in   Scattered Clouds
9:35 AM 38.8 °F 32.1 °F 28.0 °F 65% 30.33 in 10.0 mi ENE 10.4 mph - 0.03 in   Mostly Cloudy
9:55 AM 39.7 °F 33.2 °F 29.1 °F 66% 30.32 in 10.0 mi ENE 10.4 mph - 0.05 in   Overcast
10:15 AM 41.0 °F 35.8 °F 30.0 °F 65% 30.31 in 10.0 mi ENE 8.1 mph - 0.02 in   Overcast
10:35 AM 42.3 °F 37.3 °F 30.4 °F 63% 30.30 in 10.0 mi ENE 8.1 mph - 0.04 in   Mostly Cloudy
10:55 AM 43.0 °F 38.8 °F 32.2 °F 66% 30.29 in 10.0 mi NE 6.9 mph - 0.05 in   Mostly Cloudy
11:15 AM 43.9 °F 40.5 °F 33.4 °F 67% 30.27 in 10.0 mi NE 5.8 mph - N/A   Mostly Cloudy
11:35 AM 45.1 °F 40.8 °F 33.8 °F 65% 30.26 in 10.0 mi ENE 8.1 mph - N/A   Mostly Cloudy
11:55 AM 46.0 °F 42.5 °F 34.3 °F 64% 30.24 in 10.0 mi NNE 6.9 mph - N/A   Scattered Clouds
12:15 PM 47.1 °F - 34.7 °F 62% 30.23 in 10.0 mi ENE 6.9 mph - N/A   Clear
12:35 PM 47.3 °F - 34.3 °F 61% 30.23 in 10.0 mi ENE 3.5 mph - N/A   Clear
12:55 PM 48.4 °F - 35.4 °F 61% 30.22 in 10.0 mi ENE 4.6 mph - N/A   Clear
1:15 PM 49.5 °F - 36.5 °F 61% 30.21 in 10.0 mi NE 4.6 mph - N/A   Clear
1:35 PM 50.0 °F - 36.1 °F 59% 30.21 in 10.0 mi North 4.6 mph - N/A   Clear
1:55 PM 50.7 °F - 36.5 °F 58% 30.21 in 10.0 mi ENE 6.9 mph - N/A   Clear
2:15 PM 50.4 °F - 36.9 °F 60% 30.20 in 10.0 mi NE 6.9 mph - N/A   Scattered Clouds
2:35 PM 49.6 °F - 36.9 °F 61% 30.19 in 10.0 mi ENE 9.2 mph - N/A   Mostly Cloudy
2:55 PM 48.4 °F - 36.1 °F 63% 30.19 in 10.0 mi NE 8.1 mph - N/A   Overcast
3:15 PM 48.6 °F - 36.3 °F 63% 30.19 in 10.0 mi NE 8.1 mph - N/A   Mostly Cloudy
3:35 PM 47.5 °F - 35.8 °F 64% 30.19 in 10.0 mi NE 10.4 mph - N/A   Mostly Cloudy
3:55 PM 47.5 °F - 35.8 °F 64% 30.18 in 10.0 mi NNE 9.2 mph - N/A   Mostly Cloudy
4:15 PM 45.9 °F 41.2 °F 35.8 °F 68% 30.19 in 10.0 mi NE 9.2 mph - N/A   Overcast
4:35 PM 45.0 °F 40.1 °F 35.4 °F 69% 30.19 in 10.0 mi NE 9.2 mph - N/A   Overcast
4:55 PM 44.6 °F 40.7 °F 35.4 °F 70% 30.20 in 10.0 mi NE 6.9 mph - N/A   Overcast
5:15 PM 44.1 °F 38.6 °F 35.2 °F 71% 30.20 in 10.0 mi ENE 10.4 mph - N/A   Overcast
5:35 PM 43.3 °F 39.2 °F 35.1 °F 73% 30.20 in 10.0 mi ENE 6.9 mph - N/A   Overcast
5:55 PM 43.0 °F 38.8 °F 34.7 °F 73% 30.20 in 10.0 mi NE 6.9 mph - N/A   Overcast
6:15 PM 42.8 °F 38.6 °F 35.1 °F 74% 30.19 in 10.0 mi NE 6.9 mph - N/A   Overcast
6:35 PM 42.4 °F 37.0 °F 34.7 °F 74% 30.19 in 10.0 mi NE 9.2 mph - N/A   Overcast
6:55 PM 42.1 °F 37.7 °F 34.9 °F 76% 30.18 in 10.0 mi NE 6.9 mph - N/A   Overcast
7:15 PM 41.9 °F 36.9 °F 34.7 °F 76% 30.18 in 10.0 mi NE 8.1 mph - N/A   Overcast
7:35 PM 41.9 °F 37.5 °F 34.9 °F 76% 30.18 in 10.0 mi NE 6.9 mph - N/A   Overcast
7:55 PM 41.9 °F 38.2 °F 35.1 °F 77% 30.18 in 10.0 mi ENE 5.8 mph - N/A   Overcast
8:15 PM 41.9 °F 37.5 °F 35.1 °F 77% 30.17 in 10.0 mi ENE 6.9 mph - N/A   Overcast
8:35 PM 41.9 °F 38.2 °F 35.1 °F 77% 30.16 in 10.0 mi NE 5.8 mph - N/A   Overcast
8:55 PM 41.4 °F 36.8 °F 35.6 °F 80% 30.16 in 10.0 mi ENE 6.9 mph - N/A   Mostly Cloudy
9:15 PM 41.4 °F 36.2 °F 35.6 °F 80% 30.15 in 10.0 mi ENE 8.1 mph - N/A   Mostly Cloudy
9:35 PM 41.5 °F 36.4 °F 35.6 °F 79% 30.14 in 10.0 mi ENE 8.1 mph - N/A   Overcast
9:55 PM 41.0 °F 36.4 °F 35.6 °F 81% 30.13 in 10.0 mi ENE 6.9 mph - N/A   Mostly Cloudy
10:15 PM 40.8 °F 37.8 °F 36.0 °F 83% 30.13 in 10.0 mi NE 4.6 mph - N/A   Clear
10:35 PM 40.3 °F 36.3 °F 35.8 °F 84% 30.12 in 10.0 mi ENE 5.8 mph - N/A   Clear
10:55 PM 40.3 °F 37.1 °F 36.3 °F 86% 30.12 in 10.0 mi ENE 4.6 mph - N/A   Scattered Clouds
11:15 PM 40.8 °F 35.0 °F 36.7 °F 85% 30.10 in 10.0 mi ENE 9.2 mph - N/A   Mostly Cloudy
11:35 PM 41.0 °F 35.8 °F 37.4 °F 87% 30.09 in 10.0 mi ENE 8.1 mph - N/A   Scattered Clouds
11:55 PM 41.2 °F 35.5 °F 37.8 °F 88% 30.09 in 10.0 mi ENE 9.2 mph - N/A   Clear